Location: Unspecified
(58.9933°N, 5.6375°E)
Time: 07:08:25
(UTC+01:00)

CZ-3 Stage 3 - Visible Passes

Search period start: 20 November 2017 00:00
Search period end: 30 November 2017 00:00
Orbit: 416 x 34781 km, 31.0° (Epoch: 18 November)

Date Brightness Start Highest point End Pass type
(mag) Time Alt. Az. Time Alt. Az. Time Alt. Az.
20 Nov 6.2 06:37:49 10° SSW 06:43:53 12° S 06:55:01 10° SSE visible
23 Nov 6.2 06:29:37 10° SSW 06:34:36 11° S 06:42:30 10° SSE visible
26 Nov 6.3 06:22:12 10° S 06:25:17 10° S 06:29:17 10° S visible
